Location: Palomar Mountain Lodge
(33.3110°N, 116.8495°W)
Time: 23:32:03
(UTC-08:00)

Daily predictions for brighter satellites

Satellite Brightness Start Highest point End
(mag) Time Altitude Azimuth Time Altitude Azimuth Time Altitude Azimuth
ATLAS CENTAUR R/B 3.4 16:55:50 10° NNW 17:00:50 51° NE 17:10:21 10° SE
Meteosat 1 Rocket2 4.1 17:06:43 10° WSW 17:10:08 37° S 17:14:14 10° ESE
Cosmos 1844 3.8 17:05:41 10° SSW 17:11:26 81° ESE 17:17:12 10° NNE
Meteor 1-31 Rocket 2.6 17:18:15 10° SSE 17:21:53 67° ENE 17:25:34 10° N
Helios 1A 3.0 17:17:54 10° NNE 17:21:59 58° E 17:26:01 10° S
Cosmos 407 Rocket 3.4 17:19:23 10° NNW 17:24:30 74° ENE 17:29:34 10° SSE
Cosmos 1766 Rocket 4.5 17:21:32 10° NNE 17:25:07 25° ENE 17:28:40 10° SE
SMAP 3.1 17:21:32 10° SSE 17:26:09 86° WSW 17:30:49 10° NNW
CORIOLIS 4.2 17:23:17 10° SSE 17:28:37 88° W 17:34:00 10° NNW
SEDSat Delta rocket 3.8 17:24:16 10° W 17:30:10 68° S 17:35:18 10° ESE
Cosmos 1844 Rocket 3.4 17:27:22 10° SW 17:32:46 54° WNW 17:38:13 10° N
AQUARIUS 4.1 17:28:22 10° SSE 17:32:49 84° ENE 17:37:17 10° N
USA 305 3.2 17:30:27 10° NW 17:34:13 59° SW 17:37:53 10° SSE
USA 307 3.9 17:30:43 10° NW 17:34:22 43° SW 17:37:51 10° SSE
Delta 2 Rocket 3.5 17:30:35 10° W 17:35:21 82° NNW 17:38:34 18° ENE
Cosmos 2056 Rocket 3.8 17:31:43 10° SSW 17:37:03 73° WNW 17:42:28 10° NNE
Radarsat Rocket 4.3 17:32:21 10° SE 17:37:43 40° ENE 17:43:16 10° N
Cosmos 1271 Rocket 3.5 17:34:27 10° NNE 17:37:51 28° ENE 17:41:12 10° SE
Lacrosse 4 Rocket 2.6 17:33:59 10° NW 17:38:03 46° WSW 17:42:01 10° S
SL-08 R/B 3.8 17:33:53 10° NNE 17:38:12 39° E 17:42:34 10° SSE
Cosmos 1933 3.9 17:36:03 10° SSW 17:39:56 57° W 17:43:52 10° N
Cosmos 1954 Rocket 4.4 17:36:02 10° N 17:40:54 39° ENE 17:45:42 10° SE
ATLAS 2AS CENTAUR R/B 3.2 17:36:05 10° NNW 17:42:11 34° NE 17:48:02 10° ESE
Cosmos 2251 Rocket 4.1 17:40:53 10° NNW 17:46:10 63° WSW 17:51:26 10° S
SKYMED 2 3.5 17:43:36 10° NNE 17:47:57 76° ESE 17:52:15 10° S
Cosmos 220 Rocket 3.8 17:44:45 10° N 17:48:59 66° ENE 17:53:08 10° SSE
Cosmos 2026 Rocket 4.5 17:45:50 10° SSW 17:51:59 64° W 17:58:17 10° N
ISS -0.4 17:50:43 10° W 17:52:22 13° SW 17:54:01 10° SSW
Cosmos 1452 Rocket 3.9 17:49:31 10° S 17:54:24 42° ESE 17:57:33 20° NE
Cosmos 1842 Rocket 3.7 17:50:33 10° SSE 17:54:40 47° E 17:57:57 16° NNE
Cosmos 1553 Rocket 4.1 17:50:57 10° N 17:56:59 49° E 18:02:54 10° SSE
Cosmos 1190 Rocket 4.0 17:54:49 10° NNW 18:00:07 89° ENE 18:05:22 10° SSE
BREEZE-M DEB (TANK) 4.0 17:59:16 10° WSW 18:03:05 58° NNW 18:12:32 17° NE
DELTA 2 R/B (1) 3.5 17:57:44 10° WSW 18:03:20 84° SSE 18:06:11 30° ENE
Cosmos 2266 Rocket 4.3 17:57:47 10° SSE 18:03:20 38° E 18:07:20 18° NNE
Cosmos 2278 Rocket 3.5 17:59:44 10° SE 18:03:02 20° ESE 18:03:02 20° ESE
SL-4 R/B 2.9 18:05:24 10° WSW 18:08:24 31° NW 18:09:34 24° N
SME Rocket 4.5 18:04:24 10° SE 18:09:30 43° ENE 18:17:04 10° N
Cosmos 2221 3.6 18:07:05 10° SSW 18:11:05 43° W 18:15:07 10° N
COSMOS 2455 3.2 18:05:18 10° SW 18:11:14 63° WNW 18:16:40 13° NNE
Meteor 1-5 Rocket 4.4 18:06:36 10° N 18:12:25 83° W 18:18:21 10° S
USA 234 3.9 18:08:20 14° NNE 18:13:42 49° NW 18:19:55 10° WSW
OAO 2 Rocket 3.3 18:09:29 10° WSW 18:14:29 78° SSE 18:16:16 41° E
Cosmos 1331 Rocket 4.1 18:11:17 10° S 18:16:25 55° ESE 18:18:21 35° NE
Meteor 2-12 Rocket 4.5 18:14:10 10° SSE 18:19:58 53° E 18:23:31 24° NNE
RESURS DK-1 2.1 18:16:14 10° NNW 18:20:19 74° ENE 18:22:34 25° SSE
Cosmos 1378 3.4 18:28:29 10° SSW 18:31:53 58° W 18:32:06 56° WNW
Okean 3 Rocket 3.6 18:28:22 10° N 18:32:54 84° W 18:37:25 10° S
NOAA 15 4.4 18:33:07 10° SSE 18:38:22 69° ENE 18:43:36 10° N
Cosmos 1417 Rocket 4.4 18:35:36 10° N 18:41:57 78° E 18:48:19 10° S
ADEOS 3.8 18:37:45 10° S 18:42:55 70° WSW 18:48:08 10° NNW
CZ-4B DEB 4.5 18:37:58 10° SSE 18:44:38 51° NNE 18:48:54 10° N
Meteor 1-10 Rocket 4.2 18:42:19 10° S 18:48:13 87° E 18:50:14 44° N
ATLAS 2AS CENTAUR R/B 3.8 19:26:56 10° NW 19:33:00 38° WSW 19:37:28 17° S
Cosmos 2278 Rocket 3.9 19:42:01 10° SW 19:44:57 28° WSW 19:44:57 28° WSW
